User: anonymous   Login
Location: Unspecified
(0.0000°N, 0.0000°E)
Time: 01:40:46
(UTC+00:00)
Language:

Transit 4A - Orbit

View from above orbital plane
View from above orbital plane
View from above satellite
View from above satellite

Ground track
Ground track

The orbit data is extracted from the following two-line orbital elements,

1   116U 61015A   19022.53116017 -.00000073  00000-0  28062-5 0  9993
2   116  66.8104  19.6477 0075360   2.5412 357.6034 13.91745480921073
Epoch (UTC): 22 January 2019 12:44:52
Eccentricity: 0.0075360
inclination: 66.8104°
perigee height: 867 km
apogee height: 977 km
right ascension of ascending node: 19.6477°
argument of perigee: 2.5412°
revolutions per day: 13.91745480
mean anomaly at epoch: 357.6034°
orbit number at epoch: 92107

The dashed part of the orbit path shows where the satellite is in the earth's shadow,  

DLR